Time,TemperatureF,DewpointF,PressureIn,WindDirection,WindDirectionDegrees,WindSpeedMPH,WindSpeedGustMPH,Humidity,HourlyPrecipIn,Conditions,Clouds,dailyrainin,SoftwareType,DateUTC
2013-07-28 00:02:00,53.6,42.9,29.00,WSW,250,8.3,8.3,67,0.00,,---,0.00,VWS V12.08,2013-07-28 05:02:00,
2013-07-28 00:07:00,53.8,41.9,29.00,WSW,244,6.3,8.7,64,0.00,,---,0.00,VWS V12.08,2013-07-28 05:07:00,
2013-07-28 00:12:00,53.8,41.5,29.00,SW,223,5.8,8.7,63,0.00,,---,0.00,VWS V12.08,2013-07-28 05:12:00,
2013-07-28 00:17:00,53.8,41.9,29.00,WSW,245,5.4,8.1,64,0.00,,---,0.00,VWS V12.08,2013-07-28 05:17:00,
2013-07-28 00:22:00,53.8,40.2,29.00,West,264,5.4,9.6,60,0.00,,---,0.00,VWS V12.08,2013-07-28 05:22:00,
2013-07-28 00:27:00,53.8,40.2,29.00,WSW,258,3.6,9.6,60,0.00,,---,0.00,VWS V12.08,2013-07-28 05:27:00,
2013-07-28 00:32:00,53.8,39.8,29.00,WSW,241,4.0,5.4,59,0.00,,---,0.00,VWS V12.08,2013-07-28 05:32:00,
2013-07-28 00:37:00,53.8,40.2,29.00,WSW,256,5.8,8.1,60,0.00,,---,0.00,VWS V12.08,2013-07-28 05:37:00,
2013-07-28 00:42:00,54.0,39.5,29.00,WSW,257,6.3,8.7,58,0.00,,---,0.00,VWS V12.08,2013-07-28 05:42:00,
2013-07-28 00:47:00,53.8,39.8,29.00,WSW,240,6.3,6.3,59,0.00,,---,0.00,VWS V12.08,2013-07-28 05:47:00,
2013-07-28 00:52:00,53.8,39.8,29.00,WSW,246,3.6,6.3,59,0.00,,---,0.00,VWS V12.08,2013-07-28 05:52:00,
2013-07-28 00:57:00,53.8,40.7,29.00,WSW,249,7.6,8.1,61,0.00,,---,0.00,VWS V12.08,2013-07-28 05:57:00,
2013-07-28 01:02:00,53.8,41.1,28.97,WSW,251,5.8,5.8,62,0.00,,---,0.00,VWS V12.08,2013-07-28 06:02:00,
2013-07-28 01:07:00,53.8,41.9,28.97,WSW,256,4.0,6.7,64,0.00,,---,0.00,VWS V12.08,2013-07-28 06:07:00,
2013-07-28 01:12:00,53.8,42.3,28.97,SW,235,4.0,7.6,65,0.00,,---,0.00,VWS V12.08,2013-07-28 06:12:00,
2013-07-28 01:17:00,53.8,43.5,29.00,WSW,246,5.8,5.8,68,0.00,,---,0.00,VWS V12.08,2013-07-28 06:17:00,
2013-07-28 01:22:00,53.8,43.1,29.00,WSW,245,6.3,8.7,67,0.00,,---,0.00,VWS V12.08,2013-07-28 06:22:00,
2013-07-28 01:27:00,53.8,43.5,29.00,West,260,6.7,8.7,68,0.00,,---,0.00,VWS V12.08,2013-07-28 06:27:00,
2013-07-28 01:32:00,53.8,43.5,29.00,WSW,241,7.6,7.6,68,0.00,,---,0.00,VWS V12.08,2013-07-28 06:32:00,
2013-07-28 01:37:00,53.8,43.5,29.00,WSW,250,4.0,8.1,68,0.00,,---,0.00,VWS V12.08,2013-07-28 06:37:00,
2013-07-28 01:42:00,53.8,43.1,29.00,WSW,243,4.9,9.2,67,0.00,,---,0.00,VWS V12.08,2013-07-28 06:42:00,
2013-07-28 01:47:00,53.8,43.1,29.00,WSW,248,5.8,5.8,67,0.00,,---,0.00,VWS V12.08,2013-07-28 06:47:00,
2013-07-28 01:52:00,53.8,43.1,29.00,WSW,248,4.0,7.6,67,0.00,,---,0.00,VWS V12.08,2013-07-28 06:52:00,
2013-07-28 01:57:00,53.8,43.5,29.00,WSW,249,5.8,7.6,68,0.00,,---,0.00,VWS V12.08,2013-07-28 06:57:00,
2013-07-28 02:02:00,53.8,43.5,29.00,WSW,254,5.8,5.8,68,0.00,,---,0.00,VWS V12.08,2013-07-28 07:02:00,
2013-07-28 02:07:00,53.8,43.5,29.00,WSW,258,4.9,7.6,68,0.00,,---,0.00,VWS V12.08,2013-07-28 07:07:00,
2013-07-28 02:12:00,53.6,43.7,29.00,WSW,246,4.9,7.6,69,0.00,,---,0.00,VWS V12.08,2013-07-28 07:12:00,
2013-07-28 02:17:00,53.6,44.4,29.00,WSW,248,6.3,6.3,71,0.00,,---,0.00,VWS V12.08,2013-07-28 07:17:00,
2013-07-28 02:22:00,53.6,44.8,29.00,WSW,253,5.4,6.3,72,0.00,,---,0.00,VWS V12.08,2013-07-28 07:22:00,
2013-07-28 02:27:00,53.4,45.0,29.00,WSW,251,4.9,7.2,73,0.00,,---,0.00,VWS V12.08,2013-07-28 07:27:00,
2013-07-28 02:32:00,53.4,45.3,29.00,WSW,252,6.3,6.3,74,0.00,,---,0.00,VWS V12.08,2013-07-28 07:32:00,
2013-07-28 02:37:00,53.4,45.7,29.00,WSW,243,6.3,7.6,75,0.00,,---,0.00,VWS V12.08,2013-07-28 07:37:00,
2013-07-28 02:42:00,53.4,46.4,29.00,WSW,255,5.4,7.6,77,0.00,,---,0.00,VWS V12.08,2013-07-28 07:42:00,
2013-07-28 02:47:00,53.2,46.2,29.00,West,261,5.4,5.4,77,0.00,,---,0.00,VWS V12.08,2013-07-28 07:47:00,
2013-07-28 02:52:00,53.2,46.2,29.00,West,261,5.4,6.3,77,0.00,,---,0.00,VWS V12.08,2013-07-28 07:52:00,
2013-07-28 02:57:00,53.1,46.0,29.00,West,260,5.4,7.6,77,0.00,,---,0.00,VWS V12.08,2013-07-28 07:57:00,
2013-07-28 03:02:00,53.1,46.0,29.00,WSW,254,4.9,5.8,77,0.00,,---,0.00,VWS V12.08,2013-07-28 08:02:00,
2013-07-28 03:07:00,53.1,46.0,29.00,SW,228,4.9,6.3,77,0.00,,---,0.00,VWS V12.08,2013-07-28 08:07:00,
2013-07-28 03:12:00,52.9,45.5,29.00,WSW,254,5.4,7.6,76,0.00,,---,0.00,VWS V12.08,2013-07-28 08:12:00,
2013-07-28 03:17:00,52.7,45.4,28.97,West,273,4.0,5.4,76,0.00,,---,0.00,VWS V12.08,2013-07-28 08:17:00,
2013-07-28 03:22:00,52.5,45.2,28.97,WSW,255,5.8,6.3,76,0.00,,---,0.00,VWS V12.08,2013-07-28 08:22:00,
2013-07-28 03:27:00,52.5,45.5,28.97,West,279,5.8,6.3,77,0.00,,---,0.00,VWS V12.08,2013-07-28 08:27:00,
2013-07-28 03:32:00,52.5,45.9,29.00,WNW,302,4.0,4.0,78,0.00,,---,0.00,VWS V12.08,2013-07-28 08:32:00,
2013-07-28 03:37:00,52.5,45.9,29.00,WSW,254,3.6,5.8,78,0.00,,---,0.00,VWS V12.08,2013-07-28 08:37:00,
2013-07-28 03:42:00,52.5,45.9,29.00,WNW,289,5.8,7.6,78,0.00,,---,0.00,VWS V12.08,2013-07-28 08:42:00,
2013-07-28 03:47:00,52.3,45.7,29.00,West,276,4.0,5.4,78,0.00,,---,0.00,VWS V12.08,2013-07-28 08:47:00,
2013-07-28 03:52:00,52.3,45.3,29.00,WNW,284,2.7,6.3,77,0.00,,---,0.00,VWS V12.08,2013-07-28 08:52:00,
2013-07-28 03:57:00,52.3,45.3,29.00,WNW,284,4.9,6.3,77,0.00,,---,0.00,VWS V12.08,2013-07-28 08:57:00,
2013-07-28 04:02:00,52.3,45.3,29.00,WNW,283,5.4,6.3,77,0.00,,---,0.00,VWS V12.08,2013-07-28 09:02:00,
2013-07-28 04:08:00,52.3,45.3,29.00,WNW,289,6.3,8.7,77,0.00,,---,0.00,VWS V12.08,2013-07-28 09:08:00,
2013-07-28 04:13:00,52.3,45.3,29.00,WNW,294,6.3,8.7,77,0.00,,---,0.00,VWS V12.08,2013-07-28 09:13:00,
2013-07-28 04:18:00,52.5,45.5,29.00,WNW,288,5.4,5.8,77,0.00,,---,0.00,VWS V12.08,2013-07-28 09:18:00,
2013-07-28 04:23:00,52.5,45.5,29.00,WNW,295,3.1,6.3,77,0.00,,---,0.00,VWS V12.08,2013-07-28 09:23:00,
2013-07-28 04:28:00,52.3,45.3,29.00,WNW,285,4.9,7.6,77,0.00,,---,0.00,VWS V12.08,2013-07-28 09:28:00,
2013-07-28 04:33:00,52.5,45.5,29.00,WNW,288,3.6,4.9,77,0.00,,---,0.00,VWS V12.08,2013-07-28 09:33:00,
2013-07-28 04:38:00,52.5,45.9,29.00,WNW,296,3.1,5.4,78,0.00,,---,0.00,VWS V12.08,2013-07-28 09:38:00,
2013-07-28 04:43:00,52.7,46.0,29.00,West,272,3.1,5.4,78,0.00,,---,0.00,VWS V12.08,2013-07-28 09:43:00,
2013-07-28 04:48:00,52.7,46.0,29.00,WNW,288,0.0,4.9,78,0.00,,---,0.00,VWS V12.08,2013-07-28 09:48:00,
2013-07-28 04:53:00,52.7,46.0,29.00,WSW,253,0.0,4.9,78,0.00,,---,0.00,VWS V12.08,2013-07-28 09:53:00,
2013-07-28 04:58:00,52.7,46.0,29.00,WNW,292,5.8,5.8,78,0.00,,---,0.00,VWS V12.08,2013-07-28 09:58:00,
2013-07-28 05:03:00,52.9,46.2,29.00,West,270,2.2,4.0,78,0.00,,---,0.00,VWS V12.08,2013-07-28 10:03:00,
2013-07-28 05:08:00,52.9,46.5,29.00,WNW,284,3.1,4.9,79,0.00,,---,0.00,VWS V12.08,2013-07-28 10:08:00,
2013-07-28 05:13:00,52.9,46.5,29.00,WNW,296,6.3,6.3,79,0.00,,---,0.00,VWS V12.08,2013-07-28 10:13:00,
2013-07-28 05:18:00,52.7,46.0,29.00,West,277,4.0,5.4,78,0.00,,---,0.00,VWS V12.08,2013-07-28 10:18:00,
2013-07-28 05:23:00,52.7,46.0,29.00,WNW,288,5.4,6.3,78,0.00,,---,0.00,VWS V12.08,2013-07-28 10:23:00,
2013-07-28 05:28:00,52.5,45.5,29.00,WNW,297,3.6,6.3,77,0.00,,---,0.00,VWS V12.08,2013-07-28 10:28:00,
2013-07-28 05:33:00,52.3,45.3,29.00,WNW,298,5.4,5.4,77,0.00,,---,0.00,VWS V12.08,2013-07-28 10:33:00,
2013-07-28 05:38:00,52.2,44.8,29.00,NW,317,4.5,6.3,76,0.00,,---,0.00,VWS V12.08,2013-07-28 10:38:00,
2013-07-28 05:43:00,52.0,44.7,29.00,WNW,302,4.9,6.3,76,0.00,,---,0.00,VWS V12.08,2013-07-28 10:43:00,
2013-07-28 05:48:00,52.0,44.3,29.00,WNW,288,4.9,5.8,75,0.00,,---,0.00,VWS V12.08,2013-07-28 10:48:00,
2013-07-28 05:53:00,52.0,44.3,29.00,West,273,4.9,7.6,75,0.00,,---,0.00,VWS V12.08,2013-07-28 10:53:00,
2013-07-28 05:58:00,52.0,44.3,29.00,WNW,283,5.8,7.6,75,0.00,,---,0.00,VWS V12.08,2013-07-28 10:58:00,
2013-07-28 06:03:00,51.8,43.8,29.00,WNW,292,5.8,5.8,74,0.00,,---,0.00,VWS V12.08,2013-07-28 11:03:00,
2013-07-28 06:08:00,51.8,43.4,29.00,West,270,3.6,6.3,73,0.00,,---,0.00,VWS V12.08,2013-07-28 11:08:00,
2013-07-28 06:13:00,51.8,43.4,29.00,West,270,2.7,6.3,73,0.00,,---,0.00,VWS V12.08,2013-07-28 11:13:00,
2013-07-28 06:18:00,52.0,44.0,29.00,WSW,256,3.1,4.0,74,0.00,,---,0.00,VWS V12.08,2013-07-28 11:18:00,
2013-07-28 06:23:00,52.3,44.7,29.00,WNW,286,3.1,5.4,75,0.00,,---,0.00,VWS V12.08,2013-07-28 11:23:00,
2013-07-28 06:28:00,52.5,45.2,29.03,WNW,297,4.9,8.3,76,0.00,,---,0.00,VWS V12.08,2013-07-28 11:28:00,
2013-07-28 06:33:00,52.7,45.0,29.03,West,267,4.0,4.0,75,0.00,,---,0.00,VWS V12.08,2013-07-28 11:33:00,
2013-07-28 06:38:00,52.9,44.8,29.03,West,267,3.1,6.3,74,0.00,,---,0.00,VWS V12.08,2013-07-28 11:38:00,
2013-07-28 06:43:00,53.1,44.3,29.03,WNW,283,8.1,8.1,72,0.00,,---,0.00,VWS V12.08,2013-07-28 11:43:00,
2013-07-28 06:48:00,53.1,43.9,29.03,WSW,252,4.0,8.7,71,0.00,,---,0.00,VWS V12.08,2013-07-28 11:48:00,
2013-07-28 06:53:00,53.2,43.3,29.03,West,277,5.4,10.1,69,0.00,,---,0.00,VWS V12.08,2013-07-28 11:53:00,
2013-07-28 06:58:00,53.4,43.1,29.03,SW,233,4.9,10.1,68,0.00,,---,0.00,VWS V12.08,2013-07-28 11:58:00,
2013-07-28 07:03:00,53.6,42.5,29.03,West,280,5.8,8.7,66,0.00,,---,0.00,VWS V12.08,2013-07-28 12:03:00,
2013-07-28 07:08:00,53.6,42.1,29.03,WSW,252,3.1,8.7,65,0.00,,---,0.00,VWS V12.08,2013-07-28 12:08:00,
2013-07-28 07:13:00,53.8,41.1,29.03,NW,316,8.3,12.3,62,0.00,,---,0.00,VWS V12.08,2013-07-28 12:13:00,
2013-07-28 07:18:00,53.8,40.2,29.03,NW,317,4.9,6.3,60,0.00,,---,0.00,VWS V12.08,2013-07-28 12:18:00,
2013-07-28 07:23:00,54.0,40.4,29.03,WSW,253,5.4,10.5,60,0.00,,---,0.00,VWS V12.08,2013-07-28 12:23:00,
2013-07-28 07:28:00,54.0,40.4,29.03,WNW,289,10.1,10.5,60,0.00,,---,0.00,VWS V12.08,2013-07-28 12:28:00,
2013-07-28 07:33:00,54.1,40.6,29.03,WNW,295,8.1,8.1,60,0.00,,---,0.00,VWS V12.08,2013-07-28 12:33:00,
2013-07-28 07:38:00,54.5,41.8,29.03,West,264,2.7,8.1,62,0.00,,---,0.00,VWS V12.08,2013-07-28 12:38:00,
2013-07-28 07:43:00,54.5,42.6,29.03,WNW,297,8.1,8.1,64,0.00,,---,0.00,VWS V12.08,2013-07-28 12:43:00,
2013-07-28 07:48:00,54.5,40.9,29.03,NW,309,5.4,7.6,60,0.00,,---,0.00,VWS V12.08,2013-07-28 12:48:00,
2013-07-28 07:53:00,54.7,41.1,29.03,WNW,302,8.7,11.0,60,0.00,,---,0.00,VWS V12.08,2013-07-28 12:53:00,
2013-07-28 07:58:00,54.7,39.3,29.03,WNW,289,10.5,11.0,56,0.00,,---,0.00,VWS V12.08,2013-07-28 12:58:00,
2013-07-28 08:03:00,55.0,38.2,29.03,West,276,4.9,10.5,53,0.00,,---,0.00,VWS V12.08,2013-07-28 13:03:00,
2013-07-28 08:08:00,55.8,39.4,29.03,WNW,292,4.9,10.5,54,0.00,,---,0.00,VWS V12.08,2013-07-28 13:08:00,
2013-07-28 08:14:00,55.9,37.6,29.03,NW,305,9.6,10.5,50,0.00,,---,0.00,VWS V12.08,2013-07-28 13:14:00,
2013-07-28 08:19:00,55.9,37.6,29.03,NW,320,6.3,8.7,50,0.00,,---,0.00,VWS V12.08,2013-07-28 13:19:00,
2013-07-28 08:24:00,55.9,37.6,29.03,WNW,283,2.7,10.1,50,0.00,,---,0.00,VWS V12.08,2013-07-28 13:24:00,
2013-07-28 08:29:00,55.6,36.2,29.03,NW,319,3.6,10.1,48,0.00,,---,0.00,VWS V12.08,2013-07-28 13:29:00,
2013-07-28 08:34:00,55.6,36.7,29.03,NW,311,5.4,10.1,49,0.00,,---,0.00,VWS V12.08,2013-07-28 13:34:00,
2013-07-28 08:39:00,55.6,36.7,29.03,NW,306,8.7,10.1,49,0.00,,---,0.00,VWS V12.08,2013-07-28 13:39:00,
2013-07-28 08:44:00,55.2,36.4,29.03,WNW,303,8.7,10.5,49,0.00,,---,0.00,VWS V12.08,2013-07-28 13:44:00,
2013-07-28 08:49:00,55.4,37.1,29.03,NNW,329,3.6,8.1,50,0.00,,---,0.00,VWS V12.08,2013-07-28 13:49:00,
2013-07-28 08:54:00,55.6,37.8,29.03,West,267,7.6,8.7,51,0.00,,---,0.00,VWS V12.08,2013-07-28 13:54:00,
2013-07-28 08:59:00,55.6,36.2,29.06,NW,326,4.0,10.1,48,0.00,,---,0.00,VWS V12.08,2013-07-28 13:59:00,
2013-07-28 09:04:00,55.8,35.3,29.06,NW,318,8.3,10.5,46,0.00,,---,0.00,VWS V12.08,2013-07-28 14:04:00,
2013-07-28 09:09:00,55.8,34.8,29.06,WNW,297,9.6,10.5,45,0.00,,---,0.00,VWS V12.08,2013-07-28 14:09:00,
2013-07-28 09:14:00,55.8,33.6,29.06,WNW,300,6.3,13.6,43,0.00,,---,0.00,VWS V12.08,2013-07-28 14:14:00,
2013-07-28 09:19:00,55.9,34.4,29.06,NNW,343,5.4,10.5,44,0.00,,---,0.00,VWS V12.08,2013-07-28 14:19:00,
2013-07-28 09:24:00,56.3,34.1,29.06,NW,313,9.6,10.5,43,0.00,,---,0.00,VWS V12.08,2013-07-28 14:24:00,
2013-07-28 09:29:00,56.8,34.0,29.03,NW,304,11.0,11.0,42,0.00,,---,0.00,VWS V12.08,2013-07-28 14:29:00,
2013-07-28 09:34:00,57.4,32.7,29.03,NW,309,4.0,10.5,39,0.00,,---,0.00,VWS V12.08,2013-07-28 14:34:00,
2013-07-28 09:39:00,57.6,31.5,29.03,NW,325,13.2,13.2,37,0.00,,---,0.00,VWS V12.08,2013-07-28 14:39:00,
2013-07-28 09:44:00,57.6,31.5,29.03,North,0,4.9,13.2,37,0.00,,---,0.00,VWS V12.08,2013-07-28 14:44:00,
2013-07-28 09:49:00,58.6,33.1,29.03,NNW,328,11.0,12.8,38,0.00,,---,0.00,VWS V12.08,2013-07-28 14:49:00,
2013-07-28 09:54:00,60.3,33.2,29.03,NNW,327,2.7,13.2,36,0.00,,---,0.00,VWS V12.08,2013-07-28 14:54:00,
2013-07-28 09:59:00,60.6,30.6,29.03,WNW,287,8.7,13.2,32,0.00,,---,0.00,VWS V12.08,2013-07-28 14:59:00,
2013-07-28 10:04:00,59.7,29.8,29.03,West,275,7.6,11.0,32,0.00,,---,0.00,VWS V12.08,2013-07-28 15:04:00,
2013-07-28 10:09:00,60.4,29.7,29.03,WNW,296,8.3,14.1,31,0.00,,---,0.00,VWS V12.08,2013-07-28 15:09:00,
2013-07-28 10:14:00,60.3,29.5,29.06,WNW,297,8.1,14.1,31,0.00,,---,0.00,VWS V12.08,2013-07-28 15:14:00,
2013-07-28 10:19:00,60.1,29.4,29.06,WNW,290,8.3,13.6,31,0.00,,---,0.00,VWS V12.08,2013-07-28 15:19:00,
2013-07-28 10:24:00,58.8,28.3,29.06,WNW,289,13.2,13.6,31,0.00,,---,0.00,VWS V12.08,2013-07-28 15:24:00,
2013-07-28 10:29:00,58.3,28.6,29.06,WSW,253,7.6,13.6,32,0.00,,---,0.00,VWS V12.08,2013-07-28 15:29:00,
2013-07-28 10:34:00,57.0,28.2,29.06,WNW,295,11.0,12.3,33,0.00,,---,0.00,VWS V12.08,2013-07-28 15:34:00,
2013-07-28 10:39:00,57.7,28.1,29.06,WNW,286,7.6,12.3,32,0.00,,---,0.00,VWS V12.08,2013-07-28 15:39:00,
2013-07-28 10:44:00,59.9,29.2,29.06,NW,310,7.6,12.3,31,0.00,,---,0.00,VWS V12.08,2013-07-28 15:44:00,
2013-07-28 10:49:00,59.0,28.4,29.06,West,263,8.1,11.4,31,0.00,,---,0.00,VWS V12.08,2013-07-28 15:49:00,
2013-07-28 10:54:00,58.5,28.7,29.06,WNW,302,7.6,12.3,32,0.00,,---,0.00,VWS V12.08,2013-07-28 15:54:00,
2013-07-28 10:59:00,58.6,29.6,29.06,SW,227,8.3,13.2,33,0.00,,---,0.00,VWS V12.08,2013-07-28 15:59:00,
2013-07-28 11:04:00,58.8,29.0,29.06,NW,311,5.8,10.5,32,0.00,,---,0.00,VWS V12.08,2013-07-28 16:04:00,
2013-07-28 11:09:00,59.7,29.1,29.06,WNW,289,8.3,10.5,31,0.00,,---,0.00,VWS V12.08,2013-07-28 16:09:00,
2013-07-28 11:14:00,59.9,29.2,29.03,NW,307,8.3,11.0,31,0.00,,---,0.00,VWS V12.08,2013-07-28 16:14:00,
2013-07-28 11:19:00,60.1,28.6,29.03,WNW,301,12.8,14.5,30,0.00,,---,0.00,VWS V12.08,2013-07-28 16:19:00,
2013-07-28 11:24:00,60.3,28.7,29.03,WNW,300,8.3,14.5,30,0.00,,---,0.00,VWS V12.08,2013-07-28 16:24:00,
2013-07-28 11:29:00,61.2,29.5,29.06,WNW,301,8.3,14.5,30,0.00,,---,0.00,VWS V12.08,2013-07-28 16:29:00,
2013-07-28 11:34:00,61.2,29.5,29.06,WSW,239,5.4,11.9,30,0.00,,---,0.00,VWS V12.08,2013-07-28 16:34:00,
2013-07-28 11:39:00,61.7,30.0,29.06,WNW,283,8.7,13.2,30,0.00,,---,0.00,VWS V12.08,2013-07-28 16:39:00,
2013-07-28 11:44:00,61.7,30.0,29.06,WSW,243,7.6,13.2,30,0.00,,---,0.00,VWS V12.08,2013-07-28 16:44:00,
2013-07-28 11:49:00,60.4,29.7,29.06,WSW,237,8.3,8.7,31,0.00,,---,0.00,VWS V12.08,2013-07-28 16:49:00,
2013-07-28 11:54:00,60.3,29.5,29.06,WSW,248,8.7,11.0,31,0.00,,---,0.00,VWS V12.08,2013-07-28 16:54:00,
2013-07-28 11:59:00,60.8,29.2,29.06,NW,304,5.4,11.0,30,0.00,,---,0.00,VWS V12.08,2013-07-28 16:59:00,
2013-07-28 12:04:00,61.5,29.8,29.06,SW,231,5.8,12.3,30,0.00,,---,0.00,VWS V12.08,2013-07-28 17:04:00,
2013-07-28 12:09:00,60.8,29.2,29.06,NW,312,6.3,12.3,30,0.00,,---,0.00,VWS V12.08,2013-07-28 17:09:00,
2013-07-28 12:14:00,60.4,28.9,29.06,WNW,283,7.6,12.3,30,0.00,,---,0.00,VWS V12.08,2013-07-28 17:14:00,
2013-07-28 12:19:00,60.1,29.4,29.06,WSW,254,5.8,10.1,31,0.00,,---,0.00,VWS V12.08,2013-07-28 17:19:00,
2013-07-28 12:24:00,59.9,29.2,29.06,WNW,295,8.3,11.0,31,0.00,,---,0.00,VWS V12.08,2013-07-28 17:24:00,
2013-07-28 12:29:00,60.8,30.0,29.06,WNW,287,8.3,12.8,31,0.00,,---,0.00,VWS V12.08,2013-07-28 17:29:00,
2013-07-28 12:34:00,61.5,29.8,29.06,WSW,254,8.3,13.2,30,0.00,,---,0.00,VWS V12.08,2013-07-28 17:34:00,
2013-07-28 12:39:00,61.0,29.4,29.06,WNW,298,8.3,13.2,30,0.00,,---,0.00,VWS V12.08,2013-07-28 17:39:00,
2013-07-28 12:47:00,61.7,30.0,29.06,WNW,298,8.7,13.2,30,0.00,,---,0.00,VWS V12.08,2013-07-28 17:47:00,
2013-07-28 13:02:00,61.3,30.5,29.06,WNW,287,3.6,13.2,31,0.00,,---,0.00,VWS V12.08,2013-07-28 18:02:00,
2013-07-28 13:17:00,61.9,30.1,29.06,NNW,331,8.3,13.2,30,0.00,,---,0.00,VWS V12.08,2013-07-28 18:17:00,
2013-07-28 13:31:00,63.7,30.9,29.06,WNW,298,11.0,12.8,29,0.00,,---,0.00,VWS V12.08,2013-07-28 18:31:00,
2013-07-28 13:46:00,62.6,30.8,29.06,WNW,290,4.0,11.0,30,0.00,,---,0.00,VWS V12.08,2013-07-28 18:46:00,
2013-07-28 14:02:00,62.6,30.8,29.06,WNW,284,6.3,11.0,30,0.00,,---,0.00,VWS V12.08,2013-07-28 19:02:00,
2013-07-28 14:17:00,63.5,31.5,29.09,WNW,283,4.9,10.1,30,0.00,,---,0.00,VWS V12.08,2013-07-28 19:17:00,
2013-07-28 14:32:00,63.7,31.7,29.09,NW,326,6.3,10.5,30,0.00,,---,0.00,VWS V12.08,2013-07-28 19:32:00,
2013-07-28 14:47:00,63.7,31.7,29.06,West,262,4.0,9.2,30,0.00,,---,0.00,VWS V12.08,2013-07-28 19:47:00,
2013-07-28 15:02:00,64.9,32.0,29.09,NW,311,5.8,8.3,29,0.00,,---,0.00,VWS V12.08,2013-07-28 20:02:00,
2013-07-28 15:17:00,65.1,32.1,29.09,NW,316,6.3,11.0,29,0.00,,---,0.00,VWS V12.08,2013-07-28 20:17:00,
2013-07-28 15:32:00,65.8,32.7,29.06,NW,313,4.0,10.5,29,0.00,,---,0.00,VWS V12.08,2013-07-28 20:32:00,
2013-07-28 15:47:00,64.8,31.8,29.09,West,275,5.8,13.6,29,0.00,,---,0.00,VWS V12.08,2013-07-28 20:47:00,
2013-07-28 16:02:00,65.7,32.6,29.06,West,263,9.6,12.3,29,0.00,,---,0.00,VWS V12.08,2013-07-28 21:02:00,
2013-07-28 16:17:00,66.0,32.9,29.06,WNW,283,5.4,11.0,29,0.00,,---,0.00,VWS V12.08,2013-07-28 21:17:00,
2013-07-28 16:32:00,67.3,33.1,29.06,SW,235,10.5,15.0,28,0.00,,---,0.00,VWS V12.08,2013-07-28 21:32:00,
2013-07-28 16:47:00,68.2,32.0,29.06,WNW,297,6.3,12.8,26,0.00,,---,0.00,VWS V12.08,2013-07-28 21:47:00,
2013-07-28 17:02:00,67.3,31.2,29.06,WSW,252,9.2,15.0,26,0.00,,---,0.00,VWS V12.08,2013-07-28 22:02:00,
2013-07-28 17:17:00,66.6,32.5,29.06,SW,234,7.6,15.4,28,0.00,,---,0.00,VWS V12.08,2013-07-28 22:17:00,
2013-07-28 17:46:00,67.6,31.6,29.09,WSW,253,6.3,17.0,26,0.00,,---,0.00,VWS V12.08,2013-07-28 22:46:00,
2013-07-28 18:01:00,66.2,30.3,29.09,WSW,251,8.3,12.3,26,0.00,,---,0.00,VWS V12.08,2013-07-28 23:01:00,
2013-07-28 18:16:00,66.2,30.3,29.09,West,268,12.3,14.5,26,0.00,,---,0.00,VWS V12.08,2013-07-28 23:16:00,
2013-07-28 18:31:00,65.7,29.9,29.09,West,265,5.4,17.0,26,0.00,,---,0.00,VWS V12.08,2013-07-28 23:31:00,
2013-07-28 18:46:00,65.5,29.7,29.09,SW,234,8.7,14.1,26,0.00,,---,0.00,VWS V12.08,2013-07-28 23:46:00,
2013-07-28 19:01:00,64.8,29.1,29.09,WNW,291,5.4,14.5,26,0.00,,---,0.00,VWS V12.08,2013-07-29 00:01:00,
2013-07-28 19:16:00,64.0,29.4,29.09,West,260,4.5,11.4,27,0.00,,---,0.00,VWS V12.08,2013-07-29 00:16:00,
2013-07-28 19:31:00,63.5,30.7,29.09,West,271,6.7,10.5,29,0.00,,---,0.00,VWS V12.08,2013-07-29 00:31:00,
2013-07-28 19:46:00,62.8,30.9,29.09,WNW,291,6.3,10.1,30,0.00,,---,0.00,VWS V12.08,2013-07-29 00:46:00,
2013-07-28 20:01:00,62.2,31.2,29.09,WSW,249,3.6,8.7,31,0.00,,---,0.00,VWS V12.08,2013-07-29 01:01:00,
2013-07-28 20:16:00,61.9,31.7,29.12,West,263,5.4,8.1,32,0.00,,---,0.00,VWS V12.08,2013-07-29 01:16:00,
2013-07-28 20:31:00,61.9,31.7,29.12,WSW,257,5.4,7.6,32,0.00,,---,0.00,VWS V12.08,2013-07-29 01:31:00,
2013-07-28 20:46:00,61.9,32.5,29.12,West,263,4.0,8.1,33,0.00,,---,0.00,VWS V12.08,2013-07-29 01:46:00,
2013-07-28 22:02:00,61.5,35.0,29.12,WSW,239,3.6,7.6,37,0.00,,---,0.00,VWS V12.08,2013-07-29 03:02:00,
2013-07-28 22:16:00,61.3,35.5,29.12,West,263,3.6,7.2,38,0.00,,---,0.00,VWS V12.08,2013-07-29 03:16:00,
2013-07-28 22:31:00,61.0,36.5,29.12,West,279,3.1,5.8,40,0.00,,---,0.00,VWS V12.08,2013-07-29 03:31:00,
2013-07-28 22:47:00,60.8,36.3,29.12,West,259,2.7,5.8,40,0.00,,---,0.00,VWS V12.08,2013-07-29 03:47:00,
2013-07-28 23:01:00,61.0,36.5,29.15,West,266,3.1,5.4,40,0.00,,---,0.00,VWS V12.08,2013-07-29 04:01:00,
2013-07-28 23:16:00,60.6,37.4,29.15,WSW,258,3.6,6.3,42,0.00,,---,0.00,VWS V12.08,2013-07-29 04:16:00,
2013-07-28 23:32:00,60.8,37.0,29.15,WNW,285,8.1,8.1,41,0.00,,---,0.00,VWS V12.08,2013-07-29 04:32:00,
2013-07-28 23:47:00,61.2,36.7,29.15,WNW,291,4.9,8.7,40,0.00,,---,0.00,VWS V12.08,2013-07-29 04:47:00,